Time,TemperatureF,DewpointF,PressureIn,WindDirection,WindDirectionDegrees,WindSpeedMPH,WindSpeedGustMPH,Humidity,HourlyPrecipIn,Conditions,Clouds,dailyrainin,SoftwareType,DateUTC
2013-06-11 00:00:00,69.1,66.4,29.95,West,261,4.0,4.0,91,0.00,,,0.00,Wunderground v.1.13,2013-06-11 04:00:00,
2013-06-11 00:01:00,69.1,66.4,29.95,West,273,5.0,5.0,91,0.00,,,0.00,Wunderground v.1.13,2013-06-11 04:01:00,
2013-06-11 00:02:00,69.1,66.4,29.96,West,273,4.0,5.0,91,0.00,,,0.00,Wunderground v.1.13,2013-06-11 04:02:00,
2013-06-11 00:04:00,69.1,66.4,29.96,West,276,5.0,5.0,91,0.00,,,0.00,Wunderground v.1.13,2013-06-11 04:04:00,
2013-06-11 00:06:00,69.1,66.4,29.96,West,276,4.0,4.0,91,0.00,,,0.00,Wunderground v.1.13,2013-06-11 04:06:00,
2013-06-11 00:08:00,69.1,66.4,29.96,West,276,3.0,4.0,91,0.00,,,0.00,Wunderground v.1.13,2013-06-11 04:08:00,
2013-06-11 00:13:00,69.0,66.3,29.96,West,276,3.0,5.0,91,0.00,,,0.00,Wunderground v.1.13,2013-06-11 04:13:00,
2013-06-11 00:19:00,68.9,66.2,29.97,West,276,2.0,3.0,91,0.00,,,0.00,Wunderground v.1.13,2013-06-11 04:19:00,
2013-06-11 00:24:00,68.8,66.1,29.97,West,276,2.0,4.0,91,0.00,,,0.00,Wunderground v.1.13,2013-06-11 04:24:00,
2013-06-11 00:29:00,68.7,66.0,29.97,West,279,2.0,5.0,91,0.00,,,0.00,Wunderground v.1.13,2013-06-11 04:29:00,
2013-06-11 00:34:00,68.6,65.9,29.98,NW,304,3.0,6.0,91,0.00,,,0.00,Wunderground v.1.13,2013-06-11 04:34:00,
2013-06-11 00:40:00,68.5,66.1,29.98,West,277,5.0,6.0,92,0.00,,,0.00,Wunderground v.1.13,2013-06-11 04:40:00,
2013-06-11 00:46:00,68.4,66.0,29.97,West,277,4.0,4.0,92,0.00,,,0.00,Wunderground v.1.13,2013-06-11 04:46:00,
2013-06-11 00:51:00,68.3,65.9,29.97,West,277,2.0,2.0,92,0.00,,,0.00,Wunderground v.1.13,2013-06-11 04:51:00,
2013-06-11 00:57:00,68.2,65.8,29.97,West,277,1.0,1.0,92,0.00,,,0.00,Wunderground v.1.13,2013-06-11 04:57:00,
2013-06-11 01:02:00,68.1,65.7,29.97,West,277,0.0,0.0,92,0.00,,,0.00,Wunderground v.1.13,2013-06-11 05:02:00,
2013-06-11 01:08:00,67.9,65.5,29.97,West,277,0.0,0.0,92,0.00,,,0.00,Wunderground v.1.13,2013-06-11 05:08:00,
2013-06-11 01:13:00,67.8,65.4,29.97,West,277,0.0,0.0,92,0.00,,,0.00,Wunderground v.1.13,2013-06-11 05:13:00,
2013-06-11 01:19:00,67.5,65.1,29.98,West,277,0.0,0.0,92,0.00,,,0.00,Wunderground v.1.13,2013-06-11 05:19:00,
2013-06-11 01:25:00,67.3,64.9,29.97,West,277,0.0,0.0,92,0.00,,,0.00,Wunderground v.1.13,2013-06-11 05:25:00,
2013-06-11 01:30:00,67.1,64.7,29.98,West,277,0.0,0.0,92,0.00,,,0.00,Wunderground v.1.13,2013-06-11 05:30:00,
2013-06-11 01:35:00,67.0,64.6,29.98,West,277,0.0,0.0,92,0.00,,,0.00,Wunderground v.1.13,2013-06-11 05:35:00,
2013-06-11 01:41:00,66.8,64.7,29.98,West,277,0.0,0.0,93,0.00,,,0.00,Wunderground v.1.13,2013-06-11 05:41:00,
2013-06-11 01:47:00,66.7,64.6,29.98,West,277,0.0,0.0,93,0.00,,,0.00,Wunderground v.1.13,2013-06-11 05:47:00,
2013-06-11 01:52:00,66.6,64.5,29.98,West,277,0.0,0.0,93,0.00,,,0.00,Wunderground v.1.13,2013-06-11 05:52:00,
2013-06-11 01:58:00,66.5,64.4,29.98,West,277,0.0,0.0,93,0.00,,,0.00,Wunderground v.1.13,2013-06-11 05:58:00,
2013-06-11 02:03:00,66.3,64.2,29.97,West,277,0.0,0.0,93,0.00,,,0.00,Wunderground v.1.13,2013-06-11 06:03:00,
2013-06-11 02:09:00,66.0,63.9,29.98,West,277,0.0,0.0,93,0.00,,,0.00,Wunderground v.1.13,2013-06-11 06:09:00,
2013-06-11 02:14:00,65.8,63.7,29.98,West,277,0.0,0.0,93,0.00,,,0.00,Wunderground v.1.13,2013-06-11 06:14:00,
2013-06-11 02:20:00,65.7,63.6,29.98,West,277,0.0,0.0,93,0.00,,,0.00,Wunderground v.1.13,2013-06-11 06:20:00,
2013-06-11 02:25:00,65.5,63.4,29.98,West,277,0.0,0.0,93,0.00,,,0.00,Wunderground v.1.13,2013-06-11 06:25:00,
2013-06-11 02:31:00,65.2,63.1,29.98,West,277,0.0,0.0,93,0.00,,,0.00,Wunderground v.1.13,2013-06-11 06:31:00,
2013-06-11 02:37:00,65.1,63.0,29.99,West,277,0.0,0.0,93,0.00,,,0.00,Wunderground v.1.13,2013-06-11 06:37:00,
2013-06-11 02:42:00,65.0,62.9,29.98,West,277,0.0,0.0,93,0.00,,,0.00,Wunderground v.1.13,2013-06-11 06:42:00,
2013-06-11 02:48:00,64.9,62.8,29.98,West,277,0.0,0.0,93,0.00,,,0.00,Wunderground v.1.13,2013-06-11 06:48:00,
2013-06-11 02:54:00,64.8,63.0,29.98,West,277,0.0,0.0,94,0.00,,,0.00,Wunderground v.1.13,2013-06-11 06:54:00,
2013-06-11 02:59:00,64.6,62.8,29.98,West,277,0.0,0.0,94,0.00,,,0.00,Wunderground v.1.13,2013-06-11 06:59:00,
2013-06-11 03:05:00,64.5,62.7,29.98,West,277,0.0,0.0,94,0.00,,,0.00,Wunderground v.1.13,2013-06-11 07:05:00,
2013-06-11 03:10:00,64.4,62.6,29.99,West,277,0.0,0.0,94,0.00,,,0.00,Wunderground v.1.13,2013-06-11 07:10:00,
2013-06-11 03:16:00,64.3,62.5,29.99,West,277,0.0,0.0,94,0.00,,,0.00,Wunderground v.1.13,2013-06-11 07:16:00,
2013-06-11 03:22:00,64.1,62.3,29.99,West,277,0.0,0.0,94,0.00,,,0.00,Wunderground v.1.13,2013-06-11 07:22:00,
2013-06-11 03:27:00,64.0,62.2,29.99,West,277,0.0,0.0,94,0.00,,,0.00,Wunderground v.1.13,2013-06-11 07:27:00,
2013-06-11 03:33:00,63.8,62.0,29.99,West,277,0.0,0.0,94,0.00,,,0.00,Wunderground v.1.13,2013-06-11 07:33:00,
2013-06-11 03:39:00,63.6,61.8,29.99,West,277,0.0,0.0,94,0.00,,,0.00,Wunderground v.1.13,2013-06-11 07:39:00,
2013-06-11 03:44:00,63.5,61.7,29.99,West,277,0.0,0.0,94,0.00,,,0.00,Wunderground v.1.13,2013-06-11 07:44:00,
2013-06-11 03:50:00,63.3,61.5,29.99,West,277,0.0,0.0,94,0.00,,,0.00,Wunderground v.1.13,2013-06-11 07:50:00,
2013-06-11 03:56:00,63.1,61.3,29.99,West,277,0.0,0.0,94,0.00,,,0.00,Wunderground v.1.13,2013-06-11 07:56:00,
2013-06-11 04:02:00,62.9,61.1,29.99,West,277,0.0,0.0,94,0.00,,,0.00,Wunderground v.1.13,2013-06-11 08:02:00,
2013-06-11 04:08:00,62.8,61.0,29.99,West,277,0.0,0.0,94,0.00,,,0.00,Wunderground v.1.13,2013-06-11 08:08:00,
2013-06-11 04:13:00,62.8,61.0,30.00,West,277,0.0,0.0,94,0.00,,,0.00,Wunderground v.1.13,2013-06-11 08:13:00,
2013-06-11 04:19:00,62.6,60.8,30.00,West,277,0.0,0.0,94,0.00,,,0.00,Wunderground v.1.13,2013-06-11 08:19:00,
2013-06-11 04:24:00,62.5,60.7,29.99,West,277,0.0,0.0,94,0.00,,,0.00,Wunderground v.1.13,2013-06-11 08:24:00,
2013-06-11 04:29:00,62.4,60.7,30.00,West,277,0.0,0.0,94,0.00,,,0.00,Wunderground v.1.13,2013-06-11 08:29:00,
2013-06-11 04:34:00,62.3,60.6,30.00,West,277,0.0,0.0,94,0.00,,,0.00,Wunderground v.1.13,2013-06-11 08:34:00,
2013-06-11 04:40:00,62.1,60.7,29.99,West,277,0.0,0.0,95,0.00,,,0.00,Wunderground v.1.13,2013-06-11 08:40:00,
2013-06-11 04:45:00,62.0,60.3,30.00,West,277,0.0,0.0,94,0.00,,,0.00,Wunderground v.1.13,2013-06-11 08:45:00,
2013-06-11 04:50:00,61.9,60.2,30.00,West,277,0.0,0.0,94,0.00,,,0.00,Wunderground v.1.13,2013-06-11 08:50:00,
2013-06-11 04:56:00,61.7,60.0,29.99,West,277,0.0,0.0,94,0.00,,,0.00,Wunderground v.1.13,2013-06-11 08:56:00,
2013-06-11 05:01:00,61.6,60.2,30.00,West,277,0.0,0.0,95,0.00,,,0.00,Wunderground v.1.13,2013-06-11 09:01:00,
2013-06-11 05:07:00,61.4,60.0,29.99,West,277,0.0,0.0,95,0.00,,,0.00,Wunderground v.1.13,2013-06-11 09:07:00,
2013-06-11 05:13:00,61.3,59.9,29.99,West,277,0.0,0.0,95,0.00,,,0.00,Wunderground v.1.13,2013-06-11 09:13:00,
2013-06-11 05:18:00,61.2,59.8,29.99,West,277,0.0,0.0,95,0.00,,,0.00,Wunderground v.1.13,2013-06-11 09:18:00,
2013-06-11 05:24:00,61.1,59.7,30.00,West,277,0.0,0.0,95,0.00,,,0.00,Wunderground v.1.13,2013-06-11 09:24:00,
2013-06-11 05:30:00,61.0,59.6,30.00,West,277,0.0,0.0,95,0.00,,,0.00,Wunderground v.1.13,2013-06-11 09:30:00,
2013-06-11 05:36:00,60.8,59.4,30.00,West,277,0.0,0.0,95,0.00,,,0.00,Wunderground v.1.13,2013-06-11 09:36:00,
2013-06-11 05:41:00,60.7,59.3,30.00,West,277,0.0,0.0,95,0.00,,,0.00,Wunderground v.1.13,2013-06-11 09:41:00,
2013-06-11 05:46:00,60.5,59.1,30.00,West,277,0.0,0.0,95,0.00,,,0.00,Wunderground v.1.13,2013-06-11 09:46:00,
2013-06-11 05:52:00,60.4,59.0,30.00,West,277,0.0,0.0,95,0.00,,,0.00,Wunderground v.1.13,2013-06-11 09:52:00,
2013-06-11 05:57:00,60.3,58.9,30.01,West,277,0.0,0.0,95,0.00,,,0.00,Wunderground v.1.13,2013-06-11 09:57:00,
2013-06-11 06:03:00,60.2,58.8,30.01,West,277,0.0,0.0,95,0.00,,,0.00,Wunderground v.1.13,2013-06-11 10:03:00,
2013-06-11 06:08:00,60.1,58.7,30.01,West,277,0.0,0.0,95,0.00,,,0.00,Wunderground v.1.13,2013-06-11 10:08:00,
2013-06-11 06:14:00,60.0,58.6,30.01,West,277,0.0,0.0,95,0.00,,,0.00,Wunderground v.1.13,2013-06-11 10:14:00,
2013-06-11 06:19:00,59.9,58.5,30.01,West,277,0.0,0.0,95,0.00,,,0.00,Wunderground v.1.13,2013-06-11 10:19:00,
2013-06-11 06:25:00,59.8,58.4,30.01,West,277,0.0,0.0,95,0.00,,,0.00,Wunderground v.1.13,2013-06-11 10:25:00,
2013-06-11 06:30:00,59.7,58.3,30.01,West,277,0.0,0.0,95,0.00,,,0.00,Wunderground v.1.13,2013-06-11 10:30:00,
2013-06-11 06:36:00,59.6,58.2,30.01,West,277,0.0,0.0,95,0.00,,,0.00,Wunderground v.1.13,2013-06-11 10:36:00,
2013-06-11 06:42:00,59.7,58.6,30.02,West,277,0.0,0.0,96,0.00,,,0.00,Wunderground v.1.13,2013-06-11 10:42:00,
2013-06-11 06:48:00,59.8,58.7,30.02,West,277,0.0,0.0,96,0.00,,,0.00,Wunderground v.1.13,2013-06-11 10:48:00,
2013-06-11 06:53:00,59.8,58.7,30.02,West,277,0.0,0.0,96,0.00,,,0.00,Wunderground v.1.13,2013-06-11 10:53:00,
2013-06-11 06:58:00,59.9,58.8,30.02,West,277,0.0,0.0,96,0.00,,,0.00,Wunderground v.1.13,2013-06-11 10:58:00,
2013-06-11 07:04:00,60.0,58.9,30.03,West,277,0.0,0.0,96,0.00,,,0.00,Wunderground v.1.13,2013-06-11 11:04:00,
2013-06-11 07:09:00,60.2,59.1,30.03,West,277,0.0,0.0,96,0.00,,,0.00,Wunderground v.1.13,2013-06-11 11:09:00,
2013-06-11 07:15:00,60.6,59.7,30.03,West,277,0.0,0.0,97,0.00,,,0.00,Wunderground v.1.13,2013-06-11 11:15:00,
2013-06-11 07:20:00,61.1,60.2,30.03,West,277,0.0,0.0,97,0.00,,,0.00,Wunderground v.1.13,2013-06-11 11:20:00,
2013-06-11 07:26:00,61.5,60.6,30.03,West,277,0.0,0.0,97,0.00,,,0.00,Wunderground v.1.13,2013-06-11 11:26:00,
2013-06-11 07:31:00,62.0,61.1,30.04,West,277,0.0,0.0,97,0.00,,,0.00,Wunderground v.1.13,2013-06-11 11:31:00,
2013-06-11 07:37:00,62.8,62.2,30.04,West,277,0.0,0.0,98,0.00,,,0.00,Wunderground v.1.13,2013-06-11 11:37:00,
2013-06-11 07:43:00,63.3,62.7,30.04,West,277,0.0,0.0,98,0.00,,,0.00,Wunderground v.1.13,2013-06-11 11:43:00,
2013-06-11 07:48:00,63.8,63.2,30.04,West,277,0.0,0.0,98,0.00,,,0.00,Wunderground v.1.13,2013-06-11 11:48:00,
2013-06-11 07:54:00,64.6,64.0,30.04,West,277,1.0,5.0,98,0.00,,,0.00,Wunderground v.1.13,2013-06-11 11:54:00,
2013-06-11 07:59:00,65.4,65.1,30.04,West,277,3.0,6.0,99,0.00,,,0.00,Wunderground v.1.13,2013-06-11 11:59:00,
2013-06-11 08:05:00,65.8,65.2,30.04,West,275,4.0,6.0,98,0.00,,,0.00,Wunderground v.1.13,2013-06-11 12:05:00,
2013-06-11 08:10:00,66.0,65.4,30.04,West,276,4.0,6.0,98,0.00,,,0.00,Wunderground v.1.13,2013-06-11 12:10:00,
2013-06-11 08:16:00,66.3,65.7,30.04,West,276,4.0,5.0,98,0.00,,,0.00,Wunderground v.1.13,2013-06-11 12:16:00,
2013-06-11 08:21:00,66.5,65.9,30.05,West,276,3.0,3.0,98,0.00,,,0.00,Wunderground v.1.13,2013-06-11 12:21:00,
2013-06-11 08:27:00,66.5,65.9,30.05,West,275,3.0,4.0,98,0.00,,,0.00,Wunderground v.1.13,2013-06-11 12:27:00,
2013-06-11 08:33:00,66.6,66.0,30.05,West,275,3.0,3.0,98,0.00,,,0.00,Wunderground v.1.13,2013-06-11 12:33:00,
2013-06-11 08:38:00,66.6,66.0,30.05,West,275,3.0,4.0,98,0.00,,,0.00,Wunderground v.1.13,2013-06-11 12:38:00,
2013-06-11 08:44:00,66.9,66.3,30.05,West,275,2.0,4.0,98,0.00,,,0.00,Wunderground v.1.13,2013-06-11 12:44:00,
2013-06-11 08:49:00,67.4,67.1,30.05,West,275,1.0,4.0,99,0.00,,,0.00,Wunderground v.1.13,2013-06-11 12:49:00,
2013-06-11 08:55:00,67.3,66.7,30.05,West,275,2.0,2.0,98,0.00,,,0.00,Wunderground v.1.13,2013-06-11 12:55:00,
2013-06-11 09:01:00,67.5,66.9,30.06,West,275,1.0,2.0,98,0.00,,,0.00,Wunderground v.1.13,2013-06-11 13:01:00,
2013-06-11 09:07:00,67.8,67.2,30.06,West,275,1.0,2.0,98,0.00,,,0.00,Wunderground v.1.13,2013-06-11 13:07:00,
2013-06-11 09:12:00,68.0,67.4,30.06,West,275,2.0,3.0,98,0.00,,,0.00,Wunderground v.1.13,2013-06-11 13:12:00,
2013-06-11 09:18:00,68.3,67.7,30.06,West,275,2.0,2.0,98,0.00,,,0.00,Wunderground v.1.13,2013-06-11 13:18:00,
2013-06-11 09:23:00,68.8,68.2,30.06,West,275,2.0,5.0,98,0.00,,,0.00,Wunderground v.1.13,2013-06-11 13:23:00,
2013-06-11 09:29:00,69.5,68.9,30.06,West,274,2.0,4.0,98,0.00,,,0.00,Wunderground v.1.13,2013-06-11 13:29:00,
2013-06-11 09:34:00,70.3,69.4,30.06,West,275,2.0,5.0,97,0.00,,,0.00,Wunderground v.1.13,2013-06-11 13:34:00,
2013-06-11 09:40:00,71.7,70.5,30.06,West,274,3.0,6.0,96,0.00,,,0.00,Wunderground v.1.13,2013-06-11 13:40:00,
2013-06-11 09:46:00,72.4,70.6,30.06,West,264,3.0,7.0,94,0.00,,,0.00,Wunderground v.1.13,2013-06-11 13:46:00,
2013-06-11 09:51:00,72.8,70.0,30.06,West,263,3.0,4.0,91,0.00,,,0.00,Wunderground v.1.13,2013-06-11 13:51:00,
2013-06-11 09:57:00,73.5,69.7,30.06,West,262,3.0,3.0,88,0.00,,,0.00,Wunderground v.1.13,2013-06-11 13:57:00,
2013-06-11 10:02:00,74.2,69.7,30.07,West,280,3.0,7.0,86,0.00,,,0.00,Wunderground v.1.13,2013-06-11 14:02:00,
2013-06-11 10:08:00,75.1,69.2,30.07,West,272,3.0,5.0,82,0.00,,,0.00,Wunderground v.1.13,2013-06-11 14:08:00,
2013-06-11 10:13:00,75.8,69.2,30.07,West,263,3.0,5.0,80,0.00,,,0.00,Wunderground v.1.13,2013-06-11 14:13:00,
2013-06-11 10:19:00,76.2,67.3,30.07,West,273,5.0,7.0,74,0.00,,,0.00,Wunderground v.1.13,2013-06-11 14:19:00,
2013-06-11 10:24:00,76.2,66.5,30.07,West,279,5.0,8.0,72,0.00,,,0.00,Wunderground v.1.13,2013-06-11 14:24:00,
2013-06-11 10:30:00,76.5,67.2,30.06,West,265,5.0,5.0,73,0.00,,,0.00,Wunderground v.1.13,2013-06-11 14:30:00,
2013-06-11 10:35:00,76.9,67.6,30.06,NW,304,5.0,5.0,73,0.00,,,0.00,Wunderground v.1.13,2013-06-11 14:35:00,
2013-06-11 10:41:00,77.7,68.0,30.06,WSW,246,3.0,5.0,72,0.00,,,0.00,Wunderground v.1.13,2013-06-11 14:41:00,
2013-06-11 10:47:00,77.8,66.8,30.06,WSW,254,4.0,5.0,69,0.00,,,0.00,Wunderground v.1.13,2013-06-11 14:47:00,
2013-06-11 10:52:00,78.0,67.4,30.06,WSW,255,4.0,4.0,70,0.00,,,0.00,Wunderground v.1.13,2013-06-11 14:52:00,
2013-06-11 10:58:00,78.3,67.7,30.06,West,269,4.0,4.0,70,0.00,,,0.00,Wunderground v.1.13,2013-06-11 14:58:00,
2013-06-11 11:04:00,78.4,66.5,30.06,West,263,4.0,5.0,67,0.00,,,0.00,Wunderground v.1.13,2013-06-11 15:04:00,
2013-06-11 11:09:00,78.7,66.8,30.06,West,279,5.0,9.0,67,0.00,,,0.00,Wunderground v.1.13,2013-06-11 15:09:00,
2013-06-11 11:15:00,79.2,66.9,30.06,WNW,285,4.0,4.0,66,0.00,,,0.00,Wunderground v.1.13,2013-06-11 15:15:00,
2013-06-11 11:21:00,80.0,67.2,30.05,WNW,285,2.0,3.0,65,0.00,,,0.00,Wunderground v.1.13,2013-06-11 15:21:00,
2013-06-11 11:27:00,80.2,66.5,30.05,WNW,299,2.0,4.0,63,0.00,,,0.00,Wunderground v.1.13,2013-06-11 15:27:00,
2013-06-11 11:32:00,80.4,67.6,30.05,WNW,294,4.0,6.0,65,0.00,,,0.00,Wunderground v.1.13,2013-06-11 15:32:00,
2013-06-11 11:37:00,81.0,67.7,30.05,WNW,294,4.0,5.0,64,0.00,,,0.00,Wunderground v.1.13,2013-06-11 15:37:00,
2013-06-11 11:43:00,81.2,66.5,30.05,WNW,296,4.0,9.0,61,0.00,,,0.00,Wunderground v.1.13,2013-06-11 15:43:00,
2013-06-11 11:49:00,80.5,66.7,30.06,West,277,6.0,10.0,63,0.00,,,0.00,Wunderground v.1.13,2013-06-11 15:49:00,
2013-06-11 11:55:00,80.3,67.0,30.06,WNW,289,6.0,7.0,64,0.00,,,0.00,Wunderground v.1.13,2013-06-11 15:55:00,
2013-06-11 12:00:00,80.4,67.1,30.06,West,279,5.0,5.0,64,0.00,,,0.00,Wunderground v.1.13,2013-06-11 16:00:00,
2013-06-11 12:06:00,81.0,67.2,30.05,WNW,283,4.0,7.0,63,0.00,,,0.00,Wunderground v.1.13,2013-06-11 16:06:00,
2013-06-11 12:11:00,80.9,66.7,30.05,WNW,298,5.0,5.0,62,0.00,,,0.00,Wunderground v.1.13,2013-06-11 16:11:00,
2013-06-11 12:17:00,80.3,66.1,30.05,NW,313,5.0,9.0,62,0.00,,,0.00,Wunderground v.1.13,2013-06-11 16:17:00,
2013-06-11 12:22:00,80.5,67.2,30.05,WNW,287,5.0,9.0,64,0.00,,,0.00,Wunderground v.1.13,2013-06-11 16:22:00,
2013-06-11 12:27:00,80.6,66.8,30.05,WNW,288,6.0,6.0,63,0.00,,,0.00,Wunderground v.1.13,2013-06-11 16:27:00,
2013-06-11 12:33:00,80.7,66.9,30.05,West,261,6.0,9.0,63,0.00,,,0.00,Wunderground v.1.13,2013-06-11 16:33:00,
2013-06-11 12:38:00,80.9,66.2,30.05,WNW,292,5.0,9.0,61,0.00,,,0.00,Wunderground v.1.13,2013-06-11 16:38:00,
2013-06-11 12:44:00,80.2,66.5,30.05,WNW,286,6.0,10.0,63,0.00,,,0.00,Wunderground v.1.13,2013-06-11 16:44:00,
2013-06-11 12:49:00,80.1,65.4,30.05,WNW,299,6.0,9.0,61,0.00,,,0.00,Wunderground v.1.13,2013-06-11 16:49:00,
2013-06-11 12:55:00,79.8,65.6,30.05,WNW,292,5.0,6.0,62,0.00,,,0.00,Wunderground v.1.13,2013-06-11 16:55:00,
2013-06-11 13:01:00,80.3,67.0,30.05,West,281,6.0,6.0,64,0.00,,,0.00,Wunderground v.1.13,2013-06-11 17:01:00,
2013-06-11 13:07:00,81.2,66.9,30.04,West,280,6.0,6.0,62,0.00,,,0.00,Wunderground v.1.13,2013-06-11 17:07:00,
2013-06-11 13:12:00,81.5,67.2,30.04,West,266,5.0,5.0,62,0.00,,,0.00,Wunderground v.1.13,2013-06-11 17:12:00,
2013-06-11 13:18:00,81.8,66.6,30.04,West,281,5.0,7.0,60,0.00,,,0.00,Wunderground v.1.13,2013-06-11 17:18:00,
2013-06-11 13:23:00,82.0,66.7,30.04,WNW,284,5.0,6.0,60,0.00,,,0.00,Wunderground v.1.13,2013-06-11 17:23:00,
2013-06-11 13:29:00,81.8,67.0,30.04,WNW,299,6.0,9.0,61,0.00,,,0.00,Wunderground v.1.13,2013-06-11 17:29:00,
2013-06-11 13:35:00,82.3,67.5,30.04,West,267,6.0,6.0,61,0.00,,,0.00,Wunderground v.1.13,2013-06-11 17:35:00,
2013-06-11 13:40:00,82.7,68.4,30.04,WNW,288,4.0,4.0,62,0.00,,,0.00,Wunderground v.1.13,2013-06-11 17:40:00,
2013-06-11 13:45:00,83.1,67.3,30.04,West,277,5.0,6.0,59,0.00,,,0.00,Wunderground v.1.13,2013-06-11 17:45:00,
2013-06-11 13:51:00,82.4,66.6,30.04,NW,320,7.0,11.0,59,0.00,,,0.00,Wunderground v.1.13,2013-06-11 17:51:00,
2013-06-11 13:56:00,81.8,66.6,30.04,West,279,6.0,8.0,60,0.00,,,0.00,Wunderground v.1.13,2013-06-11 17:56:00,
2013-06-11 14:02:00,81.9,66.6,30.04,WNW,288,6.0,9.0,60,0.00,,,0.00,Wunderground v.1.13,2013-06-11 18:02:00,
2013-06-11 14:08:00,82.5,66.7,30.04,WNW,298,4.0,6.0,59,0.00,,,0.00,Wunderground v.1.13,2013-06-11 18:08:00,
2013-06-11 14:13:00,83.0,66.7,30.04,WNW,298,1.0,3.0,58,0.00,,,0.00,Wunderground v.1.13,2013-06-11 18:13:00,
2013-06-11 14:18:00,82.8,67.0,30.04,WNW,299,2.0,6.0,59,0.00,,,0.00,Wunderground v.1.13,2013-06-11 18:18:00,
2013-06-11 14:24:00,83.4,66.6,30.04,WNW,291,3.0,7.0,57,0.00,,,0.00,Wunderground v.1.13,2013-06-11 18:24:00,
2013-06-11 14:30:00,83.9,66.5,30.04,NW,304,4.0,5.0,56,0.00,,,0.00,Wunderground v.1.13,2013-06-11 18:30:00,
2013-06-11 14:35:00,84.2,66.8,30.04,WNW,296,3.0,4.0,56,0.00,,,0.00,Wunderground v.1.13,2013-06-11 18:35:00,
2013-06-11 14:40:00,84.7,67.8,30.04,West,279,3.0,4.0,57,0.00,,,0.00,Wunderground v.1.13,2013-06-11 18:40:00,
2013-06-11 14:46:00,85.3,68.3,30.04,WNW,282,4.0,4.0,57,0.00,,,0.00,Wunderground v.1.13,2013-06-11 18:46:00,
2013-06-11 14:51:00,85.7,67.7,30.03,WNW,298,3.0,5.0,55,0.00,,,0.00,Wunderground v.1.13,2013-06-11 18:51:00,
2013-06-11 14:56:00,85.1,66.0,30.03,NNW,327,4.0,6.0,53,0.00,,,0.00,Wunderground v.1.13,2013-06-11 18:56:00,
2013-06-11 15:01:00,85.2,66.1,30.03,WNW,298,5.0,8.0,53,0.00,,,0.00,Wunderground v.1.13,2013-06-11 19:01:00,
2013-06-11 15:07:00,85.2,66.7,30.03,NW,304,6.0,6.0,54,0.00,,,0.00,Wunderground v.1.13,2013-06-11 19:07:00,
2013-06-11 15:13:00,85.1,67.1,30.03,NW,305,4.0,6.0,55,0.00,,,0.00,Wunderground v.1.13,2013-06-11 19:13:00,
2013-06-11 15:19:00,85.5,66.4,30.03,NW,304,3.0,4.0,53,0.00,,,0.00,Wunderground v.1.13,2013-06-11 19:19:00,
2013-06-11 15:24:00,85.8,67.8,30.03,NW,306,2.0,3.0,55,0.00,,,0.00,Wunderground v.1.13,2013-06-11 19:24:00,
2013-06-11 15:29:00,86.0,67.4,30.03,NW,306,3.0,10.0,54,0.00,,,0.00,Wunderground v.1.13,2013-06-11 19:29:00,
2013-06-11 15:35:00,85.8,67.2,30.02,NW,305,4.0,4.0,54,0.00,,,0.00,Wunderground v.1.13,2013-06-11 19:35:00,
2013-06-11 15:40:00,86.1,65.9,30.02,West,269,4.0,4.0,51,0.00,,,0.00,Wunderground v.1.13,2013-06-11 19:40:00,
2013-06-11 15:45:00,86.1,65.9,30.02,West,269,4.0,6.0,51,0.00,,,0.00,Wunderground v.1.13,2013-06-11 19:45:00,
2013-06-11 15:50:00,86.1,65.9,30.02,WSW,256,4.0,4.0,51,0.00,,,0.00,Wunderground v.1.13,2013-06-11 19:50:00,
2013-06-11 15:55:00,86.1,66.4,30.02,West,273,5.0,5.0,52,0.00,,,0.00,Wunderground v.1.13,2013-06-11 19:55:00,
2013-06-11 16:00:00,85.8,66.7,30.02,WNW,288,5.0,5.0,53,0.00,,,0.00,Wunderground v.1.13,2013-06-11 20:00:00,
2013-06-11 16:05:00,85.4,66.3,30.01,WNW,296,3.0,3.0,53,0.00,,,0.00,Wunderground v.1.13,2013-06-11 20:05:00,
2013-06-11 16:10:00,85.7,66.6,30.01,WNW,296,3.0,3.0,53,0.00,,,0.00,Wunderground v.1.13,2013-06-11 20:10:00,
2013-06-11 16:16:00,85.9,65.7,30.02,WNW,296,4.0,4.0,51,0.00,,,0.00,Wunderground v.1.13,2013-06-11 20:16:00,
2013-06-11 16:22:00,85.9,66.2,30.01,WNW,296,3.0,4.0,52,0.00,,,0.00,Wunderground v.1.13,2013-06-11 20:22:00,
2013-06-11 16:28:00,86.2,67.6,30.01,WNW,290,3.0,4.0,54,0.00,,,0.00,Wunderground v.1.13,2013-06-11 20:28:00,
2013-06-11 16:33:00,86.0,66.3,30.01,WNW,290,4.0,4.0,52,0.00,,,0.00,Wunderground v.1.13,2013-06-11 20:33:00,
2013-06-11 16:39:00,86.1,66.4,30.01,WNW,290,3.0,5.0,52,0.00,,,0.00,Wunderground v.1.13,2013-06-11 20:39:00,
2013-06-11 16:44:00,86.0,66.9,30.01,WNW,298,4.0,5.0,53,0.00,,,0.00,Wunderground v.1.13,2013-06-11 20:44:00,
2013-06-11 16:50:00,86.1,65.9,30.02,WNW,298,4.0,4.0,51,0.00,,,0.00,Wunderground v.1.13,2013-06-11 20:50:00,
2013-06-11 16:55:00,86.4,66.1,30.02,WNW,298,3.0,3.0,51,0.00,,,0.00,Wunderground v.1.13,2013-06-11 20:55:00,
2013-06-11 17:01:00,86.3,66.6,30.01,West,280,2.0,4.0,52,0.00,,,0.00,Wunderground v.1.13,2013-06-11 21:01:00,
2013-06-11 17:07:00,86.2,65.9,30.01,WNW,299,3.0,8.0,51,0.00,,,0.00,Wunderground v.1.13,2013-06-11 21:07:00,
2013-06-11 17:12:00,85.9,66.2,30.01,WNW,299,4.0,6.0,52,0.00,,,0.00,Wunderground v.1.13,2013-06-11 21:12:00,
2013-06-11 17:18:00,85.7,66.6,30.01,WNW,288,5.0,6.0,53,0.00,,,0.00,Wunderground v.1.13,2013-06-11 21:18:00,
2013-06-11 17:23:00,86.1,66.4,30.00,WNW,288,3.0,5.0,52,0.00,,,0.00,Wunderground v.1.13,2013-06-11 21:23:00,
2013-06-11 17:29:00,86.3,67.7,30.00,WNW,288,1.0,2.0,54,0.00,,,0.00,Wunderground v.1.13,2013-06-11 21:29:00,
2013-06-11 17:35:00,86.3,66.6,30.00,NW,304,2.0,4.0,52,0.00,,,0.00,Wunderground v.1.13,2013-06-11 21:35:00,
2013-06-11 17:41:00,86.4,66.1,30.00,WNW,287,4.0,4.0,51,0.00,,,0.00,Wunderground v.1.13,2013-06-11 21:41:00,
2013-06-11 17:46:00,86.2,66.5,30.00,WNW,287,4.0,6.0,52,0.00,,,0.00,Wunderground v.1.13,2013-06-11 21:46:00,
2013-06-11 17:52:00,86.1,66.4,30.00,WNW,288,4.0,7.0,52,0.00,,,0.00,Wunderground v.1.13,2013-06-11 21:52:00,
2013-06-11 17:57:00,86.0,66.9,30.00,WNW,288,5.0,5.0,53,0.00,,,0.00,Wunderground v.1.13,2013-06-11 21:57:00,
2013-06-11 18:03:00,85.8,66.7,30.00,WNW,291,4.0,5.0,53,0.00,,,0.00,Wunderground v.1.13,2013-06-11 22:03:00,
2013-06-11 18:08:00,85.8,66.7,30.00,WNW,290,4.0,6.0,53,0.00,,,0.00,Wunderground v.1.13,2013-06-11 22:08:00,
2013-06-11 18:13:00,85.7,66.6,30.00,WNW,297,4.0,6.0,53,0.00,,,0.00,Wunderground v.1.13,2013-06-11 22:13:00,
2013-06-11 18:19:00,85.6,66.5,30.00,WNW,298,4.0,10.0,53,0.00,,,0.00,Wunderground v.1.13,2013-06-11 22:19:00,
2013-06-11 18:24:00,85.6,66.5,30.00,NW,313,4.0,7.0,53,0.00,,,0.00,Wunderground v.1.13,2013-06-11 22:24:00,
2013-06-11 18:29:00,85.4,66.9,30.00,WNW,290,5.0,6.0,54,0.00,,,0.00,Wunderground v.1.13,2013-06-11 22:29:00,
2013-06-11 18:34:00,85.2,66.7,30.00,WNW,290,5.0,6.0,54,0.00,,,0.00,Wunderground v.1.13,2013-06-11 22:34:00,
2013-06-11 18:39:00,85.2,67.2,29.99,WNW,290,4.0,5.0,55,0.00,,,0.00,Wunderground v.1.13,2013-06-11 22:39:00,
2013-06-11 18:45:00,85.1,67.1,29.99,WNW,290,4.0,5.0,55,0.00,,,0.00,Wunderground v.1.13,2013-06-11 22:45:00,
2013-06-11 18:50:00,85.1,67.6,29.99,WNW,290,3.0,3.0,56,0.00,,,0.00,Wunderground v.1.13,2013-06-11 22:50:00,
2013-06-11 18:55:00,85.1,67.6,29.99,WNW,290,3.0,3.0,56,0.00,,,0.00,Wunderground v.1.13,2013-06-11 22:55:00,
2013-06-11 19:00:00,85.1,67.6,29.99,WNW,293,3.0,3.0,56,0.00,,,0.00,Wunderground v.1.13,2013-06-11 23:00:00,
2013-06-11 19:05:00,85.1,67.6,29.99,WNW,293,4.0,4.0,56,0.00,,,0.00,Wunderground v.1.13,2013-06-11 23:05:00,
2013-06-11 19:10:00,85.0,67.5,29.99,WNW,293,3.0,3.0,56,0.00,,,0.00,Wunderground v.1.13,2013-06-11 23:10:00,
2013-06-11 19:15:00,84.8,67.9,29.98,WNW,292,3.0,4.0,57,0.00,,,0.00,Wunderground v.1.13,2013-06-11 23:15:00,
2013-06-11 19:21:00,84.7,68.3,29.98,WNW,292,3.0,4.0,58,0.00,,,0.00,Wunderground v.1.13,2013-06-11 23:21:00,
2013-06-11 19:27:00,84.5,68.1,29.98,WNW,292,3.0,3.0,58,0.00,,,0.00,Wunderground v.1.13,2013-06-11 23:27:00,
2013-06-11 19:33:00,84.2,68.3,29.98,WNW,292,1.0,3.0,59,0.00,,,0.00,Wunderground v.1.13,2013-06-11 23:33:00,
2013-06-11 19:39:00,83.7,68.3,29.98,WNW,292,1.0,2.0,60,0.00,,,0.00,Wunderground v.1.13,2013-06-11 23:39:00,
2013-06-11 19:44:00,83.5,68.2,29.99,WNW,292,2.0,5.0,60,0.00,,,0.00,Wunderground v.1.13,2013-06-11 23:44:00,
2013-06-11 19:50:00,83.2,68.8,29.98,WNW,292,2.0,2.0,62,0.00,,,0.00,Wunderground v.1.13,2013-06-11 23:50:00,
2013-06-11 19:55:00,82.9,68.5,29.99,WNW,292,1.0,1.0,62,0.00,,,0.00,Wunderground v.1.13,2013-06-11 23:55:00,
2013-06-11 20:00:00,82.6,68.7,29.99,WNW,292,0.0,1.0,63,0.00,,,0.00,Wunderground v.1.13,2013-06-12 00:00:00,
2013-06-11 20:05:00,82.4,69.0,29.99,WNW,292,0.0,0.0,64,0.00,,,0.00,Wunderground v.1.13,2013-06-12 00:05:00,
2013-06-11 20:11:00,82.1,69.2,29.99,WNW,292,0.0,1.0,65,0.00,,,0.00,Wunderground v.1.13,2013-06-12 00:11:00,
2013-06-11 20:17:00,81.8,69.8,29.99,WNW,292,0.0,0.0,67,0.00,,,0.00,Wunderground v.1.13,2013-06-12 00:17:00,
2013-06-11 20:22:00,81.4,69.4,29.99,WNW,292,0.0,2.0,67,0.00,,,0.00,Wunderground v.1.13,2013-06-12 00:22:00,
2013-06-11 20:28:00,80.8,69.7,29.99,WNW,292,0.0,0.0,69,0.00,,,0.00,Wunderground v.1.13,2013-06-12 00:28:00,
2013-06-11 20:33:00,80.3,69.6,29.99,WNW,292,0.0,0.0,70,0.00,,,0.00,Wunderground v.1.13,2013-06-12 00:33:00,
2013-06-11 20:39:00,79.5,69.7,30.00,WNW,292,0.0,0.0,72,0.00,,,0.00,Wunderground v.1.13,2013-06-12 00:39:00,
2013-06-11 20:44:00,78.7,69.3,30.00,WNW,292,0.0,0.0,73,0.00,,,0.00,Wunderground v.1.13,2013-06-12 00:44:00,
2013-06-11 20:49:00,78.0,69.0,30.00,WNW,292,0.0,0.0,74,0.00,,,0.00,Wunderground v.1.13,2013-06-12 00:49:00,
2013-06-11 20:54:00,77.3,68.8,30.00,WNW,292,0.0,0.0,75,0.00,,,0.00,Wunderground v.1.13,2013-06-12 00:54:00,
2013-06-11 21:00:00,76.5,68.4,30.00,WNW,292,0.0,0.0,76,0.00,,,0.00,Wunderground v.1.13,2013-06-12 01:00:00,
2013-06-11 21:06:00,75.5,68.2,30.00,WNW,292,0.0,0.0,78,0.00,,,0.00,Wunderground v.1.13,2013-06-12 01:06:00,
2013-06-11 21:11:00,74.7,67.8,30.00,WNW,292,0.0,0.0,79,0.00,,,0.00,Wunderground v.1.13,2013-06-12 01:11:00,
2013-06-11 21:17:00,74.1,67.5,30.00,WNW,292,0.0,0.0,80,0.00,,,0.00,Wunderground v.1.13,2013-06-12 01:17:00,
2013-06-11 21:23:00,73.6,67.4,30.00,WNW,292,0.0,0.0,81,0.00,,,0.00,Wunderground v.1.13,2013-06-12 01:23:00,
2013-06-11 21:29:00,73.2,67.4,30.01,WNW,292,0.0,0.0,82,0.00,,,0.00,Wunderground v.1.13,2013-06-12 01:29:00,
2013-06-11 21:34:00,72.8,67.0,30.00,WNW,292,0.0,0.0,82,0.00,,,0.00,Wunderground v.1.13,2013-06-12 01:34:00,
2013-06-11 21:39:00,72.6,67.5,30.01,WNW,292,0.0,1.0,84,0.00,,,0.00,Wunderground v.1.13,2013-06-12 01:39:00,
2013-06-11 21:44:00,72.4,67.6,30.01,WNW,292,0.0,0.0,85,0.00,,,0.00,Wunderground v.1.13,2013-06-12 01:44:00,
2013-06-11 21:50:00,72.1,67.3,30.01,WNW,292,0.0,0.0,85,0.00,,,0.00,Wunderground v.1.13,2013-06-12 01:50:00,
2013-06-11 21:55:00,71.7,67.3,30.01,WNW,292,0.0,0.0,86,0.00,,,0.00,Wunderground v.1.13,2013-06-12 01:55:00,
2013-06-11 22:00:00,71.4,67.0,30.01,WNW,292,0.0,0.0,86,0.00,,,0.00,Wunderground v.1.13,2013-06-12 02:00:00,
2013-06-11 22:05:00,71.1,67.0,30.01,WNW,292,0.0,0.0,87,0.00,,,0.00,Wunderground v.1.13,2013-06-12 02:05:00,
2013-06-11 22:10:00,70.9,66.8,30.02,WNW,292,0.0,0.0,87,0.00,,,0.00,Wunderground v.1.13,2013-06-12 02:10:00,
2013-06-11 22:16:00,70.6,66.5,30.02,WNW,292,0.0,0.0,87,0.00,,,0.00,Wunderground v.1.13,2013-06-12 02:16:00,
2013-06-11 22:21:00,70.4,66.7,30.02,WNW,292,0.0,0.0,88,0.00,,,0.00,Wunderground v.1.13,2013-06-12 02:21:00,
2013-06-11 22:27:00,70.1,66.4,30.02,WNW,292,0.0,0.0,88,0.00,,,0.00,Wunderground v.1.13,2013-06-12 02:27:00,
2013-06-11 22:32:00,69.9,66.2,30.02,WNW,292,0.0,0.0,88,0.00,,,0.00,Wunderground v.1.13,2013-06-12 02:32:00,
2013-06-11 22:38:00,69.7,66.0,30.02,WNW,292,0.0,0.0,88,0.00,,,0.00,Wunderground v.1.13,2013-06-12 02:38:00,
2013-06-11 22:43:00,69.5,66.1,30.02,WNW,292,0.0,0.0,89,0.00,,,0.00,Wunderground v.1.13,2013-06-12 02:43:00,
2013-06-11 22:49:00,69.4,66.0,30.02,WNW,292,0.0,0.0,89,0.00,,,0.00,Wunderground v.1.13,2013-06-12 02:49:00,
2013-06-11 22:54:00,69.3,65.9,30.03,WNW,292,0.0,0.0,89,0.00,,,0.00,Wunderground v.1.13,2013-06-12 02:54:00,
2013-06-11 23:00:00,69.1,66.0,30.03,WNW,292,0.0,0.0,90,0.00,,,0.00,Wunderground v.1.13,2013-06-12 03:00:00,
2013-06-11 23:06:00,69.0,65.9,30.03,WNW,292,0.0,0.0,90,0.00,,,0.00,Wunderground v.1.13,2013-06-12 03:06:00,
2013-06-11 23:11:00,68.8,65.7,30.02,WNW,292,0.0,0.0,90,0.00,,,0.00,Wunderground v.1.13,2013-06-12 03:11:00,
2013-06-11 23:17:00,68.6,65.5,30.02,WNW,292,0.0,0.0,90,0.00,,,0.00,Wunderground v.1.13,2013-06-12 03:17:00,
2013-06-11 23:23:00,68.5,65.8,30.02,WNW,292,0.0,0.0,91,0.00,,,0.00,Wunderground v.1.13,2013-06-12 03:23:00,
2013-06-11 23:28:00,68.4,65.7,30.02,WNW,292,0.0,0.0,91,0.00,,,0.00,Wunderground v.1.13,2013-06-12 03:28:00,
2013-06-11 23:33:00,68.3,65.6,30.01,WNW,292,0.0,0.0,91,0.00,,,0.00,Wunderground v.1.13,2013-06-12 03:33:00,
2013-06-11 23:39:00,68.2,65.5,30.01,WNW,292,0.0,0.0,91,0.00,,,0.00,Wunderground v.1.13,2013-06-12 03:39:00,
2013-06-11 23:44:00,68.3,65.9,30.01,WNW,292,0.0,0.0,92,0.00,,,0.00,Wunderground v.1.13,2013-06-12 03:44:00,
2013-06-11 23:50:00,68.2,65.8,30.01,WNW,292,0.0,0.0,92,0.00,,,0.00,Wunderground v.1.13,2013-06-12 03:50:00,
2013-06-11 23:55:00,68.1,65.7,30.01,WNW,292,0.0,0.0,92,0.00,,,0.00,Wunderground v.1.13,2013-06-12 03:55:00,